Theta_e
324 326 327 327 328 328 327 326 327 327 327 325 327 327 325 324 324 324 324 323 322 321 321 322 323 322 320 321 324 325 324 325 323 327 328 328 326 323 323 322 323 324 322 321
326 327 327 327 327 327 327 327 328 327 326 325 326 325 325 325 324 324 325 324 323 322 321 323 324 323 321 320 322 325 325 323 324 327 325 327 325 324 325 324 325 323 323 322
327 326 327 327 327 327 327 327 328 327 327 325 325 325 326 325 324 324 324 324 324 323 322 323 323 323 320 320 322 324 324 323 325 325 327 327 326 326 326 326 325 325 323 322
326 326 327 327 327 327 327 326 326 326 326 326 326 327 325 325 325 325 325 324 324 323 322 323 324 323 320 320 322 323 325 323 326 325 328 328 328 329 326 327 325 326 326 325
326 327 327 327 326 326 326 325 326 326 326 326 326 327 325 324 324 324 324 326 325 323 322 323 324 322 319 321 322 324 326 322 327 323 323 328 330 329 326 325 325 324 327 326
325 325 326 326 324 324 324 325 325 326 326 327 326 325 324 323 324 324 325 327 326 323 322 323 323 321 319 321 321 324 326 322 327 329 325 326 326 326 326 328 324 323 326 327
325 326 326 325 325 325 325 326 328 329 328 327 325 324 324 324 324 325 325 325 326 323 322 323 323 321 320 322 322 324 324 323 323 326 327 326 328 326 327 327 326 323 323 326
325 326 326 325 324 325 325 327 327 328 328 327 325 325 324 324 325 327 328 329 326 323 322 322 323 322 319 321 323 324 323 323 322 324 325 325 325 326 326 326 323 324 326 326
326 326 325 325 324 325 326 326 326 327 327 327 325 325 325 325 326 328 328 327 325 323 322 323 323 322 319 320 323 324 324 321 321 322 324 324 323 321 325 327 326 325 325 326
325 327 324 325 324 324 325 325 326 326 328 329 326 326 325 325 326 332 331 328 325 323 323 323 323 322 319 320 323 325 325 321 322 321 322 322 322 323 323 324 322 322 326 323
325 326 326 324 325 325 325 326 326 326 326 327 328 327 326 325 328 331 333 329 325 324 323 324 324 322 319 321 322 325 325 322 319 320 321 321 320 322 321 323 322 320 324 326
324 325 327 325 324 324 325 325 327 327 328 327 326 327 326 327 330 332 333 329 326 324 323 324 324 321 319 321 322 324 325 322 318 318 320 321 320 321 321 323 322 322 325 327
324 324 325 324 327 326 324 325 325 327 327 328 328 327 327 329 331 333 333 329 326 325 324 324 324 321 319 321 321 322 324 322 318 317 318 320 320 321 319 318 320 321 317 324
325 324 326 327 327 325 326 324 325 327 329 327 327 327 326 327 330 332 332 329 326 325 324 324 324 321 319 320 321 322 323 321 317 317 317 318 321 320 319 322 323 322 320 317
327 327 324 323 323 325 325 324 325 326 327 328 326 326 326 327 328 329 332 330 327 325 324 324 324 321 320 320 321 321 323 320 317 317 317 317 319 319 319 320 322 322 322 320
327 325 324 325 323 323 324 324 325 325 326 326 326 326 327 326 326 330 332 330 327 325 325 325 324 322 320 320 321 322 322 320 319 319 319 317 316 319 319 319 321 318 321 320
325 325 325 325 323 322 325 324 325 326 326 326 327 326 326 327 329 330 331 329 328 327 325 325 325 323 320 320 321 322 322 321 320 319 320 317 315 317 319 319 320 322 320 321
327 326 326 325 324 325 324 324 324 324 325 325 325 326 326 326 327 328 330 330 329 328 326 325 325 324 322 320 321 322 322 321 320 320 320 318 315 315 318 319 321 319 318 319
326 329 325 328 329 324 326 326 324 324 325 325 326 325 325 325 327 328 329 330 330 330 328 326 326 325 323 321 321 321 322 321 319 319 319 319 316 315 317 318 320 317 317 318
322 328 327 327 332 328 326 326 325 326 326 325 326 327 326 326 330 328 330 330 330 330 329 328 327 326 325 322 321 322 322 321 320 319 319 319 317 316 317 318 317 312 313 315
321 324 328 329 333 327 328 327 327 329 327 327 326 327 327 329 329 326 328 330 329 330 330 329 328 327 325 324 322 322 322 322 320 319 318 319 318 316 317 319 312 309 310 317
323 324 324 328 328 328 328 329 329 328 332 329 329 329 329 329 329 330 331 330 330 331 329 329 328 327 327 325 323 322 322 322 321 320 318 319 319 315 316 311 309 309 311 312
321 322 324 324 325 330 328 328 328 328 327 328 330 331 330 331 330 330 330 330 330 330 330 328 328 328 328 326 324 323 322 322 321 321 319 320 319 316 316 310 309 311 307 315
318 319 321 322 323 325 325 327 329 330 328 329 330 330 330 331 331 330 329 330 329 329 331 329 328 328 328 327 325 323 324 322 321 322 321 321 320 318 315 317 315 317 315 316
316 317 318 320 321 321 321 321 326 329 330 329 328 328 328 329 329 329 329 329 329 329 329 329 328 328 328 327 327 326 324 323 321 322 323 322 321 315 314 314 317 316 315 317
317 317 317 318 319 321 321 321 321 328 328 328 328 328 328 328 328 328 329 329 329 329 329 329 328 328 328 327 327 326 325 324 321 321 322 322 320 320 318 316 316 314 316 312
Wind_Speed
25 19 22 27 22 17 14 12 14 12 7 10 16 15 15 18 21 16 17 19 21 20 17 15 13 8 4 1 2 4 6 9 11 8 10 12 11 8 6 6 10 11 11 7
16 23 25 22 19 17 15 17 17 11 10 9 15 17 19 17 17 16 16 18 20 19 19 17 14 9 5 2 1 3 5 8 10 8 11 10 9 9 11 14 8 8 6 8
23 21 22 20 16 18 19 18 15 12 12 12 16 18 12 9 10 13 13 15 18 22 22 20 16 12 7 3 3 1 4 7 10 12 10 12 10 9 10 17 24 19 5 5
22 21 20 18 23 21 20 16 15 14 12 12 4 14 14 10 11 11 13 14 17 21 22 21 18 14 9 6 5 2 3 7 8 12 9 11 7 4 6 10 15 15 15 8
25 23 23 22 22 20 17 13 13 15 12 12 16 8 10 6 9 7 6 13 15 20 23 23 20 15 11 9 6 3 2 5 7 10 11 10 9 9 4 5 11 18 12 14
23 19 19 20 15 13 15 8 10 8 11 12 15 10 9 3 4 5 5 1 11 18 22 21 19 15 13 10 8 4 3 5 5 7 10 12 14 14 11 2 4 12 13 11
25 20 19 18 18 13 17 13 9 10 9 11 2 6 10 10 8 9 9 6 9 19 24 24 22 18 15 13 10 6 4 4 5 6 7 10 12 15 15 9 6 9 10 12
22 24 25 18 19 17 20 18 11 10 11 10 6 6 4 2 6 7 6 5 10 21 25 25 22 18 15 14 12 8 5 5 5 6 6 8 11 11 13 14 16 14 12 15
23 24 28 23 21 20 14 16 17 15 13 8 11 5 11 7 7 4 3 6 14 22 24 24 22 18 16 15 13 10 7 6 6 5 6 7 10 11 13 14 15 16 20 17
11 18 15 23 21 22 20 16 10 10 14 13 8 7 7 3 5 4 6 9 16 22 24 23 21 18 17 15 14 11 8 6 7 6 6 6 8 8 10 10 12 11 12 16
15 12 22 17 22 22 13 16 14 13 13 12 9 6 5 4 3 3 7 13 19 23 25 25 22 19 18 17 14 12 10 8 8 7 6 7 7 8 9 10 12 14 15 18
30 13 14 23 21 22 22 22 21 11 16 10 10 10 3 5 1 3 9 16 22 24 24 23 22 20 20 18 16 13 11 9 9 8 7 7 8 8 9 10 12 12 16 18
25 15 15 15 11 15 23 21 21 20 15 16 12 9 6 5 6 4 12 18 21 25 25 23 23 22 21 19 17 14 13 11 10 10 8 8 8 9 9 13 15 13 15 15
25 18 27 22 21 19 21 21 23 22 16 16 17 16 9 8 9 8 11 16 22 27 28 25 24 22 21 20 18 16 14 13 12 11 10 10 10 11 10 12 12 13 15 17
20 25 25 25 21 24 21 23 24 24 23 19 16 17 15 10 9 9 12 17 20 27 27 27 26 24 23 22 19 17 15 15 14 13 11 11 12 12 11 11 11 13 13 15
21 15 21 21 26 20 22 24 24 25 25 22 19 17 11 13 7 9 14 20 23 29 32 29 26 25 25 25 23 20 17 17 16 14 12 12 13 13 12 12 13 13 14 14
22 17 15 21 20 21 22 26 25 23 25 22 22 19 15 11 12 14 16 20 24 27 31 31 30 28 26 26 25 23 20 18 17 15 14 13 14 15 14 13 13 13 14 14
19 21 14 13 16 19 19 22 25 24 20 21 20 17 17 15 17 19 16 20 21 24 27 30 28 27 27 26 25 23 22 21 18 17 15 14 14 16 16 15 14 15 15 14
13 17 12 12 17 8 12 12 22 23 23 20 21 20 21 16 14 14 17 20 20 25 27 31 31 30 28 28 27 26 24 22 21 19 18 16 15 17 18 17 16 17 17 16
6 13 14 12 18 26 11 14 16 17 17 20 22 19 18 16 11 13 23 22 20 19 22 26 29 31 29 29 29 29 27 25 24 22 20 18 17 18 19 19 19 19 17 15
11 11 17 13 14 11 4 18 15 17 8 16 24 25 22 14 21 10 10 22 23 20 21 23 28 33 37 34 32 32 29 29 25 23 21 20 18 18 19 19 20 21 20 14
13 12 12 14 13 12 10 12 18 9 7 9 15 18 20 26 24 12 9 15 23 21 19 24 27 30 32 36 35 32 32 29 26 25 24 22 21 19 19 21 21 21 20 18
12 14 12 12 10 7 15 9 18 10 14 12 10 15 18 18 18 13 13 15 18 15 16 20 25 26 28 34 37 35 34 30 29 27 26 25 23 21 21 23 23 22 23 18
10 6 5 6 11 4 9 10 8 15 13 9 10 10 13 14 12 14 15 16 19 16 14 15 21 27 28 33 40 42 32 32 31 30 28 26 26 25 23 22 23 21 22 20
13 13 13 11 14 12 16 20 13 13 13 9 9 12 12 11 11 12 13 14 13 14 14 16 20 25 29 30 33 35 35 34 34 33 31 29 27 29 27 26 25 24 24 23
14 14 14 12 10 17 17 16 25 15 16 15 12 12 12 11 12 11 9 10 10 11 13 16 18 21 25 26 29 32 37 37 40 40 35 33 30 30 27 27 25 29 25 27
Wind_Direction
192 203 206 209 218 237 264 256 256 255 272 263 276 286 287 283 276 259 257 230 221 213 205 198 194 193 191 269 298 315 330 347 356 359 353 359 360 6 2 347 330 321 237 238
188 216 212 220 217 229 232 242 249 254 267 281 288 285 293 291 271 264 248 227 217 206 197 194 192 190 186 209 237 309 335 349 7 355 351 8 19 42 48 41 32 17 166 190
204 215 217 215 215 217 229 240 248 259 293 270 264 274 291 288 248 250 244 232 214 205 196 192 190 188 178 188 195 301 356 27 30 32 5 35 41 63 74 63 54 55 112 161
218 219 193 200 218 216 233 222 257 258 268 281 346 293 294 273 268 234 232 222 212 201 196 190 185 184 177 175 175 123 34 62 38 45 27 27 39 43 60 62 52 56 65 120
209 209 193 207 215 213 241 236 233 254 267 283 266 254 292 266 279 268 244 213 208 198 191 187 183 179 173 169 169 148 80 68 57 42 36 37 28 15 36 74 76 53 59 84
223 209 203 213 215 217 225 206 227 245 256 252 258 260 279 283 311 296 268 87 196 189 187 183 179 175 173 169 165 154 115 87 70 50 39 44 46 46 37 70 69 63 69 82
213 195 209 213 208 205 220 211 225 220 220 250 152 251 257 307 299 298 293 301 186 179 179 178 177 179 176 174 171 160 135 105 84 60 48 49 50 44 23 37 69 100 66 68
200 208 192 198 204 186 201 207 232 227 244 251 158 256 227 330 311 290 298 295 171 173 176 177 179 180 178 175 174 167 135 124 103 78 61 60 60 42 43 79 94 92 61 63
196 208 196 203 209 215 185 219 226 255 268 272 274 208 254 255 248 223 214 148 162 169 173 176 178 180 179 176 178 172 152 136 117 96 78 74 71 67 72 75 74 83 74 67
192 208 189 196 207 211 221 202 202 224 242 239 240 237 260 255 12 97 174 157 165 168 170 175 179 180 178 176 175 175 163 144 134 115 96 87 84 72 78 79 70 78 86 71
183 203 193 189 204 201 189 222 214 251 225 232 246 257 93 280 20 3 160 165 168 173 176 175 179 181 177 175 176 172 166 155 143 129 112 99 99 85 82 77 76 72 91 103
202 199 179 210 198 218 201 213 206 221 213 244 275 263 120 262 273 264 166 170 175 173 178 179 176 179 179 178 180 178 171 163 154 142 136 116 107 106 97 88 93 87 93 103
193 211 207 195 192 215 224 212 218 217 246 242 227 233 149 175 203 199 174 171 176 174 175 181 178 181 181 181 183 183 176 171 160 149 148 137 121 125 111 110 105 92 98 102
193 201 208 208 201 194 208 223 215 216 222 232 237 252 228 211 217 181 184 177 175 178 176 181 182 183 183 182 184 184 178 174 164 153 152 152 140 140 127 119 111 107 98 105
189 209 209 224 215 201 208 214 214 218 219 231 232 235 236 239 210 211 190 181 178 179 183 185 184 183 182 181 184 184 180 175 168 159 155 158 156 145 142 133 128 121 118 114
191 213 217 213 221 210 215 218 212 217 222 228 238 250 217 240 242 187 185 183 187 186 190 188 185 184 183 182 182 183 183 180 173 167 162 161 164 158 156 151 143 136 128 125
192 207 206 219 215 221 226 216 214 219 224 226 229 232 243 224 230 206 193 193 192 194 191 190 188 185 186 185 183 183 182 181 180 174 171 168 169 168 164 161 157 149 145 136
192 196 199 201 198 209 242 215 220 222 224 224 237 233 231 225 227 226 200 196 195 194 197 194 191 187 186 184 185 185 182 182 182 181 179 175 172 175 173 170 169 168 161 156
213 190 195 204 201 215 191 205 209 214 230 219 221 222 232 226 237 237 217 206 197 197 197 194 194 188 184 184 184 184 186 185 183 186 185 181 177 177 180 180 181 180 178 176
168 212 196 207 193 217 175 170 198 210 226 210 217 219 226 220 216 230 198 204 202 196 195 192 188 186 185 186 185 185 189 189 188 187 186 184 181 180 182 185 189 193 191 187
168 183 198 187 213 223 276 171 169 191 199 192 211 218 222 212 224 242 199 200 200 193 192 192 184 187 193 186 186 188 191 194 191 186 184 184 184 181 181 183 189 192 190 192
181 179 196 199 203 210 160 150 192 187 108 182 203 213 211 215 223 211 203 198 192 195 200 195 191 188 188 188 188 190 196 194 191 188 185 185 185 179 181 182 184 187 188 189
212 201 196 203 203 96 168 192 201 189 213 214 211 195 200 213 217 200 196 183 188 190 196 195 197 192 189 190 194 195 196 190 190 190 188 186 187 183 185 182 182 181 183 183
220 278 250 247 215 194 219 237 219 214 224 214 203 195 202 206 208 206 201 197 200 195 198 198 196 197 195 194 197 207 191 189 189 192 192 189 187 188 188 187 189 185 188 185
235 224 234 252 262 264 229 249 245 236 229 215 204 198 195 201 205 192 185 192 196 198 211 213 204 201 200 199 202 198 195 190 191 192 193 193 192 193 194 192 193 193 198 193
242 243 234 234 244 242 235 235 244 233 231 223 215 197 197 192 190 190 183 185 191 203 211 213 210 205 200 202 203 199 196 195 193 194 195 197 195 197 197 197 199 201 199 204